CAPE
1081 1191 1351 1579 1725 1919 1743 1500 1663 1614 1594 1571 1615 1182 1652 2194 2562 2477 2124 1719 1602 2045 1530 1380 1512 1155 1141 903 1008 930 845 729 666 545 630 288 27 13 4 14 12 330 433
943 1036 1324 1545 1628 1575 1653 1755 1927 1729 1944 1784 1840 1896 2535 2651 2490 2168 2165 1849 1329 1489 1544 1579 1492 1059 453 237 403 537 593 765 460 306 359 209 136 90 15 8 0 1362 1371
811 1065 1199 1306 1278 1179 1570 1790 1623 1708 1532 1793 1723 1947 2544 2495 2411 2145 2076 1669 229 782 15 888 565 718 27 0 47 171 566 851 605 351 333 551 241 225 200 279 565 668 696
1197 1375 1502 1428 1367 1391 1538 1599 1627 1590 1879 1627 2166 2290 2422 2231 2053 1707 2065 1797 1448 1081 753 770 756 1042 940 1185 1176 892 838 869 731 627 558 475 208 70 13 135 161 66 116
1404 1486 2112 1653 1532 1624 1780 1675 1795 1730 1757 2125 2502 2747 2518 1150 258 780 1444 1972 1658 1641 1669 1584 909 871 799 605 724 902 736 869 620 460 267 333 135 45 36 76 41 3 0
1757 2225 2439 2033 2243 2333 2347 2273 2571 2782 2992 2624 2687 1895 1080 125 0 158 952 1987 2037 1941 1608 1463 1445 1216 793 353 278 59 10 7 146 284 370 405 371 93 56 2 21 5 0
2410 2617 3206 2882 3135 3130 3308 3530 3244 2906 2304 2114 1177 524 79 0 0 0 729 1949 1631 1612 1516 1546 1375 698 621 1016 1023 628 514 487 199 60 38 84 227 260 359 266 100 97 5
2861 3187 3482 3601 3444 3092 2665 2312 1962 1652 1319 986 653 124 0 0 0 0 2 1091 878 504 556 688 661 239 0 10 763 893 742 673 623 426 447 421 537 184 170 390 391 418 540
3415 3691 3409 2895 2398 2211 1901 1680 1236 1117 570 222 144 62 0 0 0 0 0 421 497 72 0 0 18 0 0 0 205 291 493 299 158 43 18 15 11 15 30 141 112 54 86
3559 2888 2525 2313 2128 2003 1490 982 347 115 36 6 0 0 0 0 0 0 0 68 600 254 0 0 0 0 0 0 17 12 4 0 0 0 1 18 85 61 0 0 0 0 0
2800 2545 2203 1642 1043 709 458 142 183 169 28 0 0 0 0 0 0 0 0 0 0 52 0 0 0 0 0 0 0 0 0 0 0 8 27 5 5 5 2 4 0 0 0
1911 1233 863 512 359 441 369 272 122 10 0 0 0 0 0 0 0 0 0 0 0 0 0 0 0 0 0 0 0 0 0 0 0 0 0 0 0 0 0 0 0 0 0
823 567 466 296 206 255 139 33 0 0 0 0 0 2 0 0 0 0 0 0 0 0 0 0 0 0 0 0 0 0 0 0 0 0 0 0 0 0 0 0 0 0 0
427 484 255 94 60 3 0 0 0 0 0 0 0 0 0 0 0 0 0 0 0 0 0 0 0 0 0 0 0 0 0 0 0 0 0 0 0 0 0 0 0 0 0
496 310 122 5 0 0 0 0 0 0 0 0 0 0 0 0 0 0 0 0 0 0 0 0 0 0 0 0 0 0 0 0 0 0 0 0 0 0 0 0 0 0 0
336 142 24 0 0 0 0 0 0 0 0 0 0 0 0 0 0 0 0 0 0 0 0 0 0 0 0 0 0 0 0 0 0 0 0 0 0 0 0 0 0 0 0
125 72 0 24 0 0 0 0 0 0 0 0 0 0 0 0 0 0 0 0 0 0 0 0 0 0 0 0 0 0 0 0 0 0 0 0 0 0 0 0 0 0 0
208 59 0 13 0 0 0 0 0 0 0 0 0 0 0 0 0 0 0 0 0 0 0 0 0 0 0 0 0 0 0 0 8 0 0 0 0 0 0 0 0 0 0
418 43 3 1 0 0 0 0 0 0 0 0 0 0 0 0 0 0 0 0 0 0 0 0 0 0 0 0 0 0 2 1 7 4 11 0 0 0 0 0 0 0 0
256 59 34 0 0 0 0 0 0 0 0 0 0 0 0 0 0 0 0 0 0 0 0 0 0 0 0 0 0 4 8 4 9 14 15 0 0 0 0 0 0 0 0
111 0 0 0 0 0 0 0 0 0 0 0 0 0 0 0 0 0 0 0 0 0 0 0 0 0 0 0 0 0 0 2 5 1 0 0 0 0 0 0 0 0 0
4 0 0 0 0 0 0 0 0 0 0 0 0 0 0 0 0 0 0 0 0 0 0 0 0 0 0 0 0 0 0 0 2 0 0 0 0 0 0 0 0 0 0
0 0 0 0 0 0 0 0 0 0 0 0 0 0 0 0 0 0 0 0 0 0 0 0 0 0 0 0 0 0 0 0 0 0 0 0 0 0 0 0 0 0 0
0 0 0 0 0 0 0 0 0 0 0 0 0 0 0 0 0 0 0 0 0 0 0 0 0 0 0 0 0 0 0 0 0 0 0 0 0 0 0 0 0 0 8
0 0 0 0 0 0 0 0 0 0 0 0 0 0 0 0 0 0 0 0 0 0 0 0 0 0 0 0 0 0 0 0 0 0 0 0 0 0 0 0 0 0 0
0 0 0 0 0 0 0 0 0 0 0 0 0 0 0 0 0 0 0 0 0 0 0 0 0 0 0 0 0 0 0 0 0 0 0 0 0 0 0 0 0 2 0
CIN
-59 -45 -49 -48 -47 -48 -42 -47 -33 -39 -45 -50 -44 -68 -28 -4 -2 -5 -22 -34 -24 -2 -21 -8 -15 -19 -19 -18 -4 -7 -8 -4 -8 -27 -20 -66 -178 -187 -61 -112 -28 -42 -117
-69 -64 -39 -31 -18 -30 -46 -33 -23 -53 -48 -57 -46 -34 -4 -2 -3 -7 -7 -17 -20 -18 -10 -9 -9 -14 -6 -83 -36 -33 -7 -10 -13 -34 -26 -24 -89 -125 -140 -213 -0 -2 -17
-91 -62 -52 -34 -57 -63 -23 -26 -34 -34 -60 -45 -53 -35 -5 -2 -2 -9 -8 -6 -164 -19 -150 -79 -38 -10 -23 -36 -117 -99 -29 -3 -17 -37 -50 -27 -18 -46 -79 -57 -32 -53 -67
-37 -26 -25 -37 -36 -49 -41 -26 -31 -42 -39 -53 -14 -3 -2 -7 -29 -76 -40 -20 -10 -15 -72 -61 -26 -6 -21 -20 -23 -14 -16 -16 -18 -16 -16 -23 -54 -78 -76 -19 -40 -89 -84
-37 -26 -7 -37 -45 -33 -14 -36 -38 -46 -49 -24 -5 -1 -1 -139 -337 -178 -92 -37 -15 -16 -9 -6 -53 -71 -70 -77 -49 -31 -33 -17 -21 -5 -22 -19 -43 -91 -48 -10 -39 -118 -14
-29 -10 -20 -48 -36 -31 -23 -19 -7 -0 -4 -6 -2 -55 -130 -342 -0 -352 -126 -30 -11 -8 -14 -9 -21 -28 -54 -105 -102 -165 -238 -217 -57 -20 -22 -5 -4 -35 -39 -102 -32 -78 -0
-59 -34 -35 -51 -26 -16 -3 -3 -3 -12 -35 -24 -105 -246 -456 -0 -0 -0 -123 -1 -8 -2 -4 -0 -4 -61 -71 -13 -3 -26 -28 -25 -69 -126 -122 -61 -16 -8 -13 -9 -17 -28 -67
-84 -47 -38 -20 -22 -35 -36 -43 -68 -80 -88 -114 -185 -409 -0 -0 -0 -0 -213 -7 -18 -100 -72 -30 -25 -164 -0 -25 -11 -1 -1 -7 -9 -17 -17 -11 -7 -42 -24 -9 -10 -2 -2
-53 -35 -50 -80 -95 -80 -86 -85 -119 -95 -182 -309 -346 -431 -0 -0 -0 -0 -0 -157 -99 -344 -0 -0 -43 -0 -0 -0 -104 -52 -17 -46 -108 -147 -185 -186 -149 -155 -91 -11 -6 -24 -36
-53 -96 -116 -112 -93 -81 -112 -149 -259 -374 -469 -543 -0 -0 -0 -0 -0 -0 -0 -278 -71 -174 -0 -0 -0 -0 -0 -0 -297 -310 -290 -0 -0 -0 -2 -91 -84 -79 -0 -0 -0 -0 -0
-104 -126 -137 -177 -244 -264 -276 -384 -314 -288 -327 -0 -0 -0 -0 -0 -0 -0 -0 -0 -0 -164 -0 -0 -0 -0 -0 -0 -0 -0 -0 -0 -0 -12 -15 -17 -36 -39 -51 -30 -4 -0 -0
-218 -303 -343 -373 -370 -300 -268 -262 -341 -323 -0 -0 -0 -0 -0 -0 -0 -0 -0 -0 -0 -0 -0 -0 -0 -0 -0 -0 -0 -0 -0 -0 -0 -0 -6 -0 -7 -0 -0 -0 -0 -0 -0
-389 -431 -411 -422 -408 -336 -357 -471 -0 -0 -0 -0 -0 -3 -0 -0 -0 -0 -0 -0 -0 -0 -0 -0 -0 -0 -0 -0 -0 -0 -0 -0 -0 -0 -0 -0 -0 -0 -0 -0 -0 -0 -0
-469 -443 -478 -493 -482 -423 -0 -0 -0 -0 -0 -0 -0 -0 -0 -0 -0 -0 -0 -0 -0 -0 -0 -0 -0 -0 -0 -0 -0 -0 -0 -0 -0 -0 -0 -0 -0 -0 -0 -0 -0 -0 -0
-440 -483 -513 -328 -0 -0 -0 -0 -0 -0 -0 -0 -0 -0 -0 -0 -0 -0 -0 -0 -0 -0 -0 -0 -0 -0 -0 -0 -0 -0 -0 -0 -0 -0 -0 -0 -0 -0 -0 -0 -0 -0 -0
-463 -511 -585 -0 -0 -0 -0 -0 -0 -0 -0 -0 -0 -0 -0 -0 -0 -0 -0 -0 -0 -0 -0 -0 -0 -0 -0 -0 -0 -0 -0 -0 -0 -0 -0 -0 -0 -0 -0 -0 -0 -0 -0
-495 -506 -0 -530 -0 -0 -0 -0 -0 -0 -0 -0 -0 -0 -0 -0 -0 -0 -0 -0 -0 -0 -0 -0 -0 -0 -0 -0 -0 -0 -0 -0 -0 -0 -0 -0 -0 -0 -0 -0 -0 -0 -0
-450 -468 -0 -526 -0 -0 -0 -0 -0 -0 -0 -0 -0 -0 -0 -0 -0 -0 -0 -0 -0 -0 -0 -0 -0 -0 -0 -0 -0 -0 -0 -0 -2 -0 -0 -0 -0 -0 -0 -0 -0 -0 -0
-352 -485 -281 -61 -0 -0 -0 -0 -0 -0 -0 -0 -0 -0 -0 -0 -0 -0 -0 -0 -0 -0 -0 -0 -0 -0 -0 -0 -0 -0 -2 -1 -2 -9 -8 -0 -0 -0 -0 -0 -0 -0 -0
-384 -456 -418 -0 -0 -0 -0 -0 -0 -0 -0 -0 -0 -0 -0 -0 -0 -0 -0 -0 -0 -0 -0 -0 -0 -0 -0 -0 -0 -2 -2 -1 -3 -5 -5 -0 -0 -0 -0 -0 -0 -0 -0
-458 -0 -0 -0 -0 -0 -0 -0 -0 -0 -0 -0 -0 -0 -0 -0 -0 -0 -0 -0 -0 -0 -0 -0 -0 -0 -0 -0 -0 -0 -0 -3 -4 -10 -0 -0 -0 -0 -0 -0 -0 -0 -0
-506 -0 -0 -0 -0 -0 -0 -0 -0 -0 -0 -0 -0 -0 -0 -0 -0 -0 -0 -0 -0 -0 -0 -0 -0 -0 -0 -0 -0 -0 -0 -0 -4 -0 -0 -0 -0 -0 -0 -0 -0 -0 -0
-0 -0 -0 -0 -0 -0 -0 -0 -0 -0 -0 -0 -0 -0 -0 -0 -0 -0 -0 -0 -0 -0 -0 -0 -0 -0 -0 -0 -0 -0 -0 -0 -0 -0 -0 -0 -0 -0 -0 -0 -0 -0 -0
-0 -0 -0 -0 -0 -0 -0 -0 -0 -0 -0 -0 -0 -0 -0 -0 -0 -0 -0 -0 -0 -0 -0 -0 -0 -0 -0 -0 -0 -0 -0 -0 -0 -0 -0 -0 -0 -0 -0 -0 -0 -0 -1
-0 -0 -0 -0 -0 -0 -0 -0 -0 -0 -0 -0 -0 -0 -0 -0 -0 -0 -0 -0 -0 -0 -0 -0 -0 -0 -0 -0 -0 -0 -0 -0 -0 -0 -0 -0 -0 -0 -0 -0 -0 -0 -0
-0 -0 -0 -0 -0 -0 -0 -0 -0 -0 -0 -0 -0 -0 -0 -0 -0 -0 -0 -0 -0 -0 -0 -0 -0 -0 -0 -0 -0 -0 -0 -0 -0 -0 -0 -0 -0 -0 -0 -0 -0 -1 -0
Wind_Speed
22 24 20 19 17 16 20 17 14 11 11 11 11 8 9 7 5 4 4 18 25 23 18 19 3 4 5 14 12 10 10 7 3 13 20 18 7 11 27 40 41 31 18
19 17 19 14 17 19 14 14 11 10 10 8 9 8 8 8 6 7 2 2 29 29 30 29 4 2 21 27 27 27 23 13 11 18 19 17 5 4 2 12 34 23 2
20 19 21 20 17 17 14 10 10 8 7 7 7 7 6 6 7 4 7 3 8 15 27 29 30 6 6 10 8 5 17 8 10 9 9 13 16 19 24 9 28 30 29
21 20 17 16 13 10 11 8 6 6 7 6 6 7 4 4 13 12 7 4 4 4 8 10 6 5 7 6 7 15 16 8 4 4 6 10 18 26 32 28 25 25 31
21 14 8 9 8 9 8 8 9 9 7 6 6 9 17 19 24 25 23 14 15 8 5 5 12 15 15 8 7 6 11 3 4 10 12 12 14 25 29 21 22 25 29
14 7 9 9 9 10 10 12 12 11 15 14 16 18 19 20 25 26 26 24 22 20 17 16 15 17 19 16 9 6 10 11 9 13 14 16 15 11 15 22 19 21 24
11 9 8 8 9 10 11 12 12 15 16 16 16 17 20 22 25 25 24 22 22 22 22 21 19 20 22 22 20 18 18 14 11 12 12 13 16 19 18 17 14 12 12
9 8 8 9 10 10 11 13 14 15 15 16 17 18 20 22 25 24 22 18 20 21 22 21 20 21 22 23 21 19 19 21 19 17 16 17 19 22 22 20 20 20 19
8 7 8 9 10 10 11 12 13 14 15 16 17 18 20 22 24 23 22 17 18 20 21 21 21 21 23 22 21 22 19 20 19 19 19 19 19 21 23 24 25 26 25
8 7 9 10 10 11 13 14 14 13 13 15 16 18 20 21 23 22 22 19 17 17 20 23 22 22 23 23 22 22 21 23 22 22 20 19 19 21 23 24 24 25 25
8 9 9 10 12 13 13 13 12 13 14 15 16 17 19 20 22 21 21 20 20 17 20 22 22 23 23 24 23 23 23 24 22 19 20 20 22 23 25 25 26 27 27
8 8 9 11 13 13 13 13 13 13 13 13 14 16 19 20 20 21 21 21 20 20 20 19 20 22 23 24 24 25 26 26 25 24 24 25 26 26 28 28 27 28 28
11 9 10 12 13 13 13 13 13 12 13 12 12 14 15 17 19 20 20 20 20 20 19 19 19 20 21 22 24 25 25 25 25 25 26 26 27 28 29 28 30 30 30
11 10 11 12 13 13 13 12 12 12 11 13 14 14 16 18 19 20 19 19 18 19 18 18 19 19 20 21 23 24 25 25 25 25 26 27 28 29 30 31 32 32 31
9 10 11 12 12 13 14 14 14 16 15 14 15 15 15 16 17 18 19 19 20 20 21 17 18 20 21 22 22 22 24 25 26 27 27 28 29 30 31 33 33 34 35
9 9 10 12 12 12 13 14 16 15 15 15 15 15 16 16 16 18 18 19 18 20 19 19 19 20 21 22 23 23 23 24 26 27 29 29 30 31 33 33 33 34 36
9 8 9 10 11 11 11 11 12 15 15 15 15 15 15 15 16 17 18 19 18 19 16 18 19 20 21 22 23 24 25 25 22 25 28 28 30 31 33 33 33 33 34
9 8 8 8 9 10 11 11 11 11 12 13 14 14 14 15 15 16 18 19 16 16 17 18 19 19 19 21 23 25 26 27 23 26 26 25 29 31 31 33 33 34 34
5 7 7 7 8 10 10 11 11 11 11 11 11 12 12 14 15 15 15 17 19 19 18 18 19 20 21 23 23 24 23 24 24 24 23 24 28 30 31 32 32 33 33
4 5 5 5 6 8 9 9 9 9 9 9 8 9 11 12 13 13 13 14 18 18 21 22 24 25 25 25 23 22 23 25 26 23 26 27 28 30 31 32 32 32 32
5 5 3 3 4 5 6 7 7 8 8 8 14 9 9 10 12 11 15 16 18 21 21 22 23 24 24 25 26 26 26 26 27 27 28 29 31 32 31 31 31 33 33
7 6 3 1 2 3 4 6 7 7 8 10 11 11 12 12 11 15 15 16 18 20 20 22 22 24 25 25 27 27 27 27 27 27 28 30 30 30 31 31 32 32 32
9 7 5 3 1 2 3 5 6 7 8 8 9 12 12 10 10 14 15 15 17 18 21 22 23 24 24 25 25 25 25 27 27 27 29 30 30 29 30 31 31 30 29
9 8 6 3 2 2 3 6 6 7 8 9 11 10 11 12 11 13 13 15 17 20 21 23 23 22 23 24 24 23 24 25 27 27 28 28 29 30 30 29 28 28 31
10 8 6 4 4 3 5 6 7 7 8 9 10 10 10 10 11 12 12 15 17 18 22 22 22 22 22 21 22 20 22 26 26 26 27 28 28 27 27 29 30 30 31
11 8 6 5 6 7 6 9 9 7 7 8 9 10 11 11 12 11 13 15 16 18 21 21 24 23 22 22 19 20 22 24 24 25 26 27 27 27 28 28 27 30 32
Wind_Direction
169 180 169 173 173 175 192 189 189 184 186 190 188 177 176 158 137 131 150 224 243 250 218 217 121 140 156 199 194 182 178 171 167 0 348 350 21 335 315 258 248 219 178
156 158 169 159 170 179 170 176 165 169 170 166 175 176 175 184 186 186 159 80 289 281 276 255 179 81 325 306 300 241 236 209 13 353 359 355 22 347 63 159 207 195 265
156 159 173 171 165 176 173 151 162 150 134 146 152 161 174 184 195 52 199 106 190 283 304 264 268 24 43 93 153 170 220 199 17 18 26 18 353 338 312 311 274 274 279
157 158 153 157 150 137 149 139 89 87 70 102 149 177 143 166 9 25 35 36 31 142 198 212 197 140 149 151 170 223 212 200 192 69 57 35 6 338 310 294 299 298 283
154 129 95 107 82 105 53 76 41 42 62 125 87 50 5 357 339 336 348 13 17 49 86 99 34 25 22 56 56 53 12 90 150 30 25 25 28 1 329 310 308 306 295
116 35 59 55 46 27 6 4 11 15 357 6 2 359 358 360 341 336 334 341 351 358 10 18 20 18 11 21 50 70 22 17 23 13 12 17 27 54 48 350 334 324 312
94 71 55 44 21 2 8 8 15 358 0 4 11 7 359 352 341 345 342 357 357 356 354 353 1 354 353 348 355 5 5 19 26 13 10 13 9 10 15 23 35 32 25
75 59 31 22 17 12 8 7 1 4 8 7 3 4 3 356 344 349 356 17 11 359 354 351 355 352 345 346 352 2 3 359 3 9 11 5 359 354 355 358 354 351 349
68 50 39 30 27 29 18 13 8 8 9 6 2 7 3 357 342 345 350 18 25 22 13 359 354 351 344 345 352 350 3 2 6 6 3 2 1 356 354 347 342 335 333
72 49 47 49 47 25 7 1 3 14 20 16 15 11 7 1 352 351 354 14 27 30 25 13 7 6 357 354 356 354 355 350 356 358 6 4 1 0 357 356 352 347 343
66 62 39 22 13 13 13 22 28 24 19 24 21 18 15 11 6 3 359 7 9 37 20 14 12 10 9 5 5 2 358 354 360 6 5 14 6 0 353 350 348 344 340
67 49 31 29 21 22 31 30 28 33 33 37 47 36 24 20 15 13 10 7 11 15 18 20 18 13 9 6 1 353 351 351 350 354 354 350 346 345 343 338 342 342 342
84 53 34 22 22 31 39 43 49 58 55 59 55 35 35 28 20 14 14 11 11 13 16 17 14 13 11 6 4 3 360 357 356 355 352 349 347 344 342 344 338 338 339
89 70 46 34 35 44 60 74 50 38 48 28 25 27 18 4 359 356 2 13 21 15 14 18 19 17 15 14 10 8 5 1 359 357 354 350 347 344 343 342 338 338 338
93 79 65 57 59 27 19 25 27 8 4 17 14 14 21 12 10 9 6 5 5 6 6 25 19 11 9 8 11 15 11 5 358 356 352 349 346 344 341 339 337 335 332
102 90 79 81 69 52 40 29 18 20 17 25 25 24 22 31 27 19 17 16 18 13 18 17 14 10 6 3 3 4 4 2 358 353 348 346 345 344 341 340 339 336 333
112 101 88 78 81 62 48 43 36 20 17 19 26 31 32 33 28 25 19 13 18 13 23 17 12 6 2 0 360 358 356 355 359 356 351 349 347 345 342 342 341 339 337
120 111 100 84 69 62 52 52 52 50 38 29 25 33 33 30 26 20 13 9 19 22 18 15 10 7 7 1 357 354 352 351 352 352 351 352 351 347 345 343 341 339 338
132 125 113 89 78 74 64 63 66 62 52 44 35 24 29 26 22 19 19 18 11 12 12 10 5 1 358 357 356 353 352 350 349 349 349 351 348 346 344 344 343 342 341
164 148 130 101 83 82 72 73 72 69 64 58 52 44 41 34 28 27 29 24 14 12 3 357 354 354 354 352 352 351 350 348 348 351 349 348 348 347 345 344 344 343 343
203 177 162 116 101 87 75 77 65 51 46 43 16 55 54 36 22 30 19 17 10 359 1 1 357 356 355 353 351 348 348 349 349 350 349 348 347 344 345 345 344 342 341
233 210 225 194 104 73 57 68 57 50 47 40 33 21 8 7 22 20 21 16 10 8 7 3 360 356 354 353 351 350 348 346 347 350 348 347 346 346 345 344 343 343 342
239 231 241 272 270 5 11 25 40 50 46 36 48 28 26 35 30 19 16 17 16 13 7 3 359 358 358 356 354 355 355 351 350 350 347 346 346 346 345 343 343 343 344
237 221 239 236 280 316 341 340 358 20 34 30 22 32 31 25 26 20 15 18 13 8 6 2 1 1 0 359 359 1 359 356 352 349 349 347 346 345 346 346 345 345 343
226 222 234 251 275 296 324 329 340 359 14 26 17 17 24 30 23 19 22 14 9 8 3 3 3 1 360 360 358 2 1 357 356 353 353 351 349 349 349 347 346 345 344
218 217 241 275 281 300 313 310 320 348 354 8 11 16 15 15 9 14 11 7 5 5 2 4 360 359 1 1 7 5 1 359 357 357 357 354 353 352 350 349 348 346 344